STARLINK-37683, 69367

Orbit data source: Space-Track

STARLINK-37683, 69367 is a payload satellite owned by SpaceX/Seattle (US) in LEO that was launched on Thu, 04 Jun 2026 UTC via an FALCON 9 launch vehicle from the Air Force Eastern Test Range (AFETR). Payload-class satellites include a variety of spacecraft equipped with specific instruments for various scientific and technological missions. These include communications satellites like Starlink; space stations such as the ISS; scientific satellites like the Hubble; Earth observation satellites from companies like Planet Labs, Umbra, and HawkEye 360; GPS; miniature CubeSats for education and research; and military/defense satellites.

Not visible in the next 10 days
Identifier
69367, 2026-123Q
Orbit
LEO
Country
Flag of USUS
Related business
Manufacturer
SpaceX/Seattle
Mission
Operational spacecraft
Bus & Motor
STARLINK V2MO, Unknown motor
Mass
575 kg wet, ~530 kg dry
Launch date (UTC)
2026-06-04 (2 months ago)
Launch vehicle
FALCON 9
Launch site
Air Force Eastern Test Range (AFETR)
Object type
Payload
Rocket body
Debris
Shape & HBR
BOX + PAN, 17.7 m
Radar Cross Section
Large (>1 m²)

Expand to show TLE details & history
Last TLE update: 22 hours ago

TLE from 22 hours ago
0 STARLINK-37683
1 69367U 26123Q   26207.52894364  .00361752  00000-0  22521-2 0  9991
2 69367  53.1578  45.7677 0001481 143.3487 216.7635 15.75365976  8240
Epoch: 2026-07-26T12:41Z
TLE epoch observation values (Epoch: 2026-07-26T12:41:40.730Z)
Latitude
-0.00001°
Longitude
-88.87759°
Altitude
345.304 km
Speed
7.702 km/s
True Right ascension
03h 03m 04s
True Declination
0° 00' 00"
Sunlit
Object was in daylight at epoch
Visualization orbit readout
Latitude
Unknown
Longitude
Unknown
Altitude
Unknown
Speed
Unknown
Apparent Right ascension
Unknown
Apparent Declination
Unknown
Sunlit
N/A
Visualization observer readout
Local Sidereal Time
00:01:17
Azimuth
Unknown
Elevation
Unknown
Doppler factor
Unknown
Orbital elements
Apogee altitude
344.847 km
Perigee altitude
342.856 km
Semi-major axis
6,721.989 km
Eccentricity
0.00015
Inclination
53.1578°
RAAN
45.7677°
Arg. of periapsis
143.3487°
True anomaly
216.75334°
Mean anomaly
216.7635°
Eccentric anomaly
216.75842°
Mean motion
3.93819 °/min
Orbital period
91.41 mins
BSTAR
0.0022521
Loading maneuver chart data...
Computing Atmospheric mass density...
Loading historical data...
Loading historical data...
Loading historical data...
Loading historical data...
Loading historical data...
Loading historical data...
Loading historical data...

Documentation

Showing up to 5 results
|